Name,Date (UTC),Temp (C),RGauge (mm),SWE (mm),SD (cm)
Moyie Mountain,2020-09-21 00:00:00,10,87,8,2
Moyie Mountain,2020-09-21 01:00:00,9.7,87,8,1
Moyie Mountain,2020-09-21 02:00:00,8,87,7,2
Moyie Mountain,2020-09-21 03:00:00,7.5,87,7,2
Moyie Mountain,2020-09-21 04:00:00,6.9,87,7,2
Moyie Mountain,2020-09-21 05:00:00,6.8,87,7,2
Moyie Mountain,2020-09-21 06:00:00,6.5,87,7,2
Moyie Mountain,2020-09-21 07:00:00,6.5,87,7,1
Moyie Mountain,2020-09-21 08:00:00,6.2,87,7,1
Moyie Mountain,2020-09-21 09:00:00,6.3,87,6,1
Moyie Mountain,2020-09-21 10:00:00,6.2,87,6,2
Moyie Mountain,2020-09-21 11:00:00,5.8,87,6,1
Moyie Mountain,2020-09-21 12:00:00,5.6,87,6,1
Moyie Mountain,2020-09-21 13:00:00,5.9,87,6,1
Moyie Mountain,2020-09-21 14:00:00,6.3,87,6,1
Moyie Mountain,2020-09-21 15:00:00,6.2,87,6,1
Moyie Mountain,2020-09-21 16:00:00,7.4,87,6,1
Moyie Mountain,2020-09-21 17:00:00,8.1,87,6,1
Moyie Mountain,2020-09-21 18:00:00,10.1,87,6,1
Moyie Mountain,2020-09-21 19:00:00,11.3,87,7,0
Moyie Mountain,2020-09-21 20:00:00,11.9,87,7,1
Moyie Mountain,2020-09-21 21:00:00,12.1,87,8,1
Moyie Mountain,2020-09-21 22:00:00,13.4,87,9,1
Moyie Mountain,2020-09-21 23:00:00,12.1,87,9,2
Moyie Mountain,2020-09-22 00:00:00,10.9,87,9,1
Moyie Mountain,2020-09-22 01:00:00,10.3,86,9,1
Moyie Mountain,2020-09-22 02:00:00,9.6,86,8,1
Moyie Mountain,2020-09-22 03:00:00,9.1,86,8,1
Moyie Mountain,2020-09-22 04:00:00,8.9,86,7,1
Moyie Mountain,2020-09-22 05:00:00,8.3,86,7,1
Moyie Mountain,2020-09-22 06:00:00,8.2,86,7,1
Moyie Mountain,2020-09-22 07:00:00,7.8,86,7,1
Moyie Mountain,2020-09-22 08:00:00,7.8,86,7,1
Moyie Mountain,2020-09-22 09:00:00,8.2,86,7,1
Moyie Mountain,2020-09-22 10:00:00,8.3,86,7,1
Moyie Mountain,2020-09-22 11:00:00,8.1,86,7,1
Moyie Mountain,2020-09-22 12:00:00,8.3,86,7,2
Moyie Mountain,2020-09-22 13:00:00,8.3,86,7,1
Moyie Mountain,2020-09-22 14:00:00,8.2,86,7,2
Moyie Mountain,2020-09-22 15:00:00,8.8,86,7,1
Moyie Mountain,2020-09-22 16:00:00,8.7,86,7,2
Moyie Mountain,2020-09-22 17:00:00,9.1,87,7,2
Moyie Mountain,2020-09-22 18:00:00,8.5,87,7,1
Moyie Mountain,2020-09-22 19:00:00,11.3,87,7,1
Moyie Mountain,2020-09-22 20:00:00,14.2,87,7,1
Moyie Mountain,2020-09-22 21:00:00,13.9,87,10,1
Moyie Mountain,2020-09-22 22:00:00,15.1,87,10,2
Moyie Mountain,2020-09-22 23:00:00,13.3,87,10,1
Moyie Mountain,2020-09-23 00:00:00,13,87,10,1
Moyie Mountain,2020-09-23 01:00:00,12.1,87,9,1
Moyie Mountain,2020-09-23 02:00:00,10,86,9,1
Moyie Mountain,2020-09-23 03:00:00,9.6,86,8,1
Moyie Mountain,2020-09-23 04:00:00,8.7,86,7,1
Moyie Mountain,2020-09-23 05:00:00,8.5,86,7,1
Moyie Mountain,2020-09-23 06:00:00,8,86,7,1
Moyie Mountain,2020-09-23 07:00:00,8.3,86,7,2
Moyie Mountain,2020-09-23 08:00:00,7.9,86,7,1
Moyie Mountain,2020-09-23 09:00:00,8,86,7,1
Moyie Mountain,2020-09-23 10:00:00,8,86,7,1
Moyie Mountain,2020-09-23 11:00:00,8.3,86,7,1
Moyie Mountain,2020-09-23 12:00:00,8.2,86,7,1
Moyie Mountain,2020-09-23 13:00:00,8,86,7,1
Moyie Mountain,2020-09-23 16:00:00,8.6,86,7,2
Moyie Mountain,2020-09-23 17:00:00,9.6,86,7,1
Moyie Mountain,2020-09-23 18:00:00,11,87,7,2
Moyie Mountain,2020-09-23 19:00:00,12.9,87,7,2
Moyie Mountain,2020-09-23 20:00:00,11.9,87,8,2
Moyie Mountain,2020-09-23 21:00:00,11.5,87,9,2
Moyie Mountain,2020-09-23 22:00:00,11.4,87,9,2
Moyie Mountain,2020-09-23 23:00:00,12,87,8,1
Moyie Mountain,2020-09-24 00:00:00,10.7,87,9,2
Moyie Mountain,2020-09-24 01:00:00,8.7,87,8,2
Moyie Mountain,2020-09-24 02:00:00,9.7,87,8,2
Moyie Mountain,2020-09-24 03:00:00,9.3,87,7,1
Moyie Mountain,2020-09-24 04:00:00,9.4,87,7,1
Moyie Mountain,2020-09-24 05:00:00,9.7,86,7,1
Moyie Mountain,2020-09-24 06:00:00,8.7,87,7,1
Moyie Mountain,2020-09-24 07:00:00,7,87,7,2
Moyie Mountain,2020-09-24 08:00:00,6.2,89,7,2
Moyie Mountain,2020-09-24 09:00:00,5.9,91,7,2
Moyie Mountain,2020-09-24 10:00:00,5.9,92,7,2
Moyie Mountain,2020-09-24 11:00:00,5.9,93,7,2
Moyie Mountain,2020-09-24 12:00:00,5.5,95,7,2
Moyie Mountain,2020-09-24 13:00:00,4.9,96,7,2
Moyie Mountain,2020-09-24 14:00:00,4.4,96,7,2
Moyie Mountain,2020-09-24 15:00:00,4.3,96,6,2
Moyie Mountain,2020-09-24 16:00:00,4.4,96,6,2
Moyie Mountain,2020-09-24 17:00:00,4.5,96,6,2
Moyie Mountain,2020-09-24 18:00:00,4.8,96,6,2
Moyie Mountain,2020-09-24 19:00:00,4.9,95,6,2
Moyie Mountain,2020-09-24 20:00:00,5.1,95,6,2
Moyie Mountain,2020-09-24 21:00:00,6.4,95,5,1
Moyie Mountain,2020-09-24 22:00:00,4.6,95,6,2
Moyie Mountain,2020-09-24 23:00:00,6.6,95,6,2
Moyie Mountain,2020-09-25 00:00:00,5.9,95,6,2
Moyie Mountain,2020-09-25 01:00:00,5.4,95,6,2
Moyie Mountain,2020-09-25 02:00:00,3.5,97,7,1
Moyie Mountain,2020-09-25 03:00:00,4,98,6,2
Moyie Mountain,2020-09-25 04:00:00,3.8,98,6,2
Moyie Mountain,2020-09-25 05:00:00,2.3,101,6,2
Moyie Mountain,2020-09-25 06:00:00,3.2,101,5,2
Moyie Mountain,2020-09-25 07:00:00,3.4,102,5,2
Moyie Mountain,2020-09-25 08:00:00,3.4,102,5,2
Moyie Mountain,2020-09-25 09:00:00,3.3,102,5,2
Moyie Mountain,2020-09-25 10:00:00,3.3,102,5,2
Moyie Mountain,2020-09-25 11:00:00,3.1,102,5,2
Moyie Mountain,2020-09-25 12:00:00,2.9,102,5,2
Moyie Mountain,2020-09-25 13:00:00,2.7,102,5,2
Moyie Mountain,2020-09-25 14:00:00,2.4,102,5,2
Moyie Mountain,2020-09-25 15:00:00,2.7,102,4,2
Moyie Mountain,2020-09-25 16:00:00,2.9,102,4,2
Moyie Mountain,2020-09-25 17:00:00,3.4,102,4,2
Moyie Mountain,2020-09-25 18:00:00,2.7,102,5,2
Moyie Mountain,2020-09-25 19:00:00,2.8,103,5,2
Moyie Mountain,2020-09-25 20:00:00,2.2,103,5,2
Moyie Mountain,2020-09-25 21:00:00,2,103,5,2
Moyie Mountain,2020-09-25 22:00:00,2,104,5,2
Moyie Mountain,2020-09-25 23:00:00,2.2,104,5,2
Moyie Mountain,2020-09-26 00:00:00,2.3,104,5,2
Moyie Mountain,2020-09-26 01:00:00,2.7,105,5,2
Moyie Mountain,2020-09-26 02:00:00,2.6,105,5,2
Moyie Mountain,2020-09-26 03:00:00,2.5,105,5,2
Moyie Mountain,2020-09-26 04:00:00,2.7,105,5,2
Moyie Mountain,2020-09-26 05:00:00,1.2,106,5,2
Moyie Mountain,2020-09-26 06:00:00,1.6,106,4,2
Moyie Mountain,2020-09-26 07:00:00,1.3,106,4,2
Moyie Mountain,2020-09-26 08:00:00,1.5,106,4,2
Moyie Mountain,2020-09-26 09:00:00,1.1,106,4,2
Moyie Mountain,2020-09-26 10:00:00,0.9,106,4,2
Moyie Mountain,2020-09-26 11:00:00,0.6,106,3,2
Moyie Mountain,2020-09-26 12:00:00,0.5,106,3,2
Moyie Mountain,2020-09-26 13:00:00,0.2,106,3,1
Moyie Mountain,2020-09-26 14:00:00,0.2,105,3,2
Moyie Mountain,2020-09-26 15:00:00,0.3,106,3,2
Moyie Mountain,2020-09-26 16:00:00,0.7,105,3,2
Moyie Mountain,2020-09-26 17:00:00,2.7,105,3,1
Moyie Mountain,2020-09-26 18:00:00,2.5,105,3,1
Moyie Mountain,2020-09-26 19:00:00,1.9,105,3,2
Moyie Mountain,2020-09-26 20:00:00,4.3,105,3,1
Moyie Mountain,2020-09-26 21:00:00,5.6,105,4,2
Moyie Mountain,2020-09-26 22:00:00,5.2,105,5,2
Moyie Mountain,2020-09-26 23:00:00,4.3,104,5,2
Moyie Mountain,2020-09-27 00:00:00,2.1,105,5,2
Moyie Mountain,2020-09-27 01:00:00,1.2,105,4,2
Moyie Mountain,2020-09-27 02:00:00,0.6,105,4,2
Moyie Mountain,2020-09-27 03:00:00,0.8,105,4,1
Moyie Mountain,2020-09-27 04:00:00,0.7,105,4,2
Moyie Mountain,2020-09-27 05:00:00,0.4,105,3,2
Moyie Mountain,2020-09-27 06:00:00,0.1,105,3,2
Moyie Mountain,2020-09-27 07:00:00,0,105,3,1
Moyie Mountain,2020-09-27 08:00:00,-0.2,105,3,2
Moyie Mountain,2020-09-27 09:00:00,0,105,2,1
Moyie Mountain,2020-09-27 10:00:00,0.2,105,2,2
Moyie Mountain,2020-09-27 11:00:00,0.1,105,2,1
Moyie Mountain,2020-09-27 12:00:00,-0.6,105,2,1
Moyie Mountain,2020-09-27 13:00:00,-0.5,105,2,1
Moyie Mountain,2020-09-27 14:00:00,-0.6,105,2,1
Moyie Mountain,2020-09-27 15:00:00,-0.4,105,2,1
Moyie Mountain,2020-09-27 16:00:00,1,105,2,1
Moyie Mountain,2020-09-27 17:00:00,2.5,105,2,1
Moyie Mountain,2020-09-27 18:00:00,4,105,2,0
Moyie Mountain,2020-09-27 19:00:00,5.4,105,3,1
Moyie Mountain,2020-09-27 20:00:00,6.3,105,4,1
Moyie Mountain,2020-09-27 21:00:00,8,105,5,0
Moyie Mountain,2020-09-27 22:00:00,7.4,105,7,2
Moyie Mountain,2020-09-27 23:00:00,8.1,105,7,1
Moyie Mountain,2020-09-28 00:00:00,7.6,105,7,1
Moyie Mountain,2020-09-28 01:00:00,5.9,105,7,1
Moyie Mountain,2020-09-28 02:00:00,4.9,105,6,1
Moyie Mountain,2020-09-28 03:00:00,4,105,5,1
Moyie Mountain,2020-09-28 04:00:00,3.9,105,5,1
Moyie Mountain,2020-09-28 05:00:00,3.9,105,5,2
Moyie Mountain,2020-09-28 06:00:00,3.2,105,4,1
Moyie Mountain,2020-09-28 07:00:00,3.4,105,4,1
Moyie Mountain,2020-09-28 08:00:00,3.4,105,4,1
Moyie Mountain,2020-09-28 09:00:00,3.7,105,4,1
Moyie Mountain,2020-09-28 10:00:00,3.4,105,3,1
Moyie Mountain,2020-09-28 11:00:00,3,105,3,1
Moyie Mountain,2020-09-28 12:00:00,3.2,105,3,1
Moyie Mountain,2020-09-28 13:00:00,,,,
